Powrót do katalogu

NATO 4A R/B

PAM-D

AktywnyGTO
NORAD 21049·ROCKET BODY·🇺🇸 United States

Wystrzelony Jan 8, 1991 z Cape Canaveral Space Force Station

Loading…

TLE

NieaktualneSource: Space-Track

Epoka: Sep 13, 2026, 17:38 UTC

1 21049U 91001C   26256.73488120 -.00000092  00000-0  31191-2 0  9990
2 21049  25.9757 313.5262 7074974 256.9285  24.3212  2.26577476295321

Śledź NATO 4A R/B w czasie rzeczywistym z AllMySat

Download on the App Store